Location: Bh?mavarapp?du
(16.7041°N, 80.6518°E)
Time: 00:41:57
(UTC+00:00)

Lacrosse 4 Rocket - Pass Details

Date: 21 April 2021
Orbit: 538 x 619 km, 68.0° (Epoch: 08 May)

Event Time Altitude Azimuth Distance (km) Brightness Sun altitude
Rises 13:22:24 0° 317° (NW) 2,765 6.0 -7.4°
Reaches altitude 10° 13:25:09 10° 299° (WNW) 1,850 5.5 -8.0°
Maximum altitude 13:28:04 19° 254° (WSW) 1,360 4.2 -8.7°
Drops below altitude 10° 13:30:57 10° 209° (SSW) 1,817 4.1 -9.3°
Sets 13:33:37 0° 190° (S) 2,697 4.8 -9.9°
